Lexington Weather

Lexington, Massachusetts, USA

46°F
10/22/2019 1:58am 
  • Lexington Conditions: Few Clouds
  • Temperature: 46.0°F / 7.8°CWarmer 0.5°F than last hour.
  • Dew Point: 44.4°FIncreased 1.4°Fsince last hour.
  • Relative Humidity: 94%Increased 3.0% since last hour.
  • Wind: Calm, 10-min avg: Calm, gust: None
  • Barometer: 30.12 in Steady
  • Visibility: 10 miles
  • Rain Today: 0.00 in
  •   

Regional Weather Roundup
for Boston, MA

        
000
ASUS41 KBOX 200510
RWRBOX

REGIONAL WEATHER ROUNDUP
NATIONAL WEATHER SERVICE BOSTON/NORTON MA
100 AM EDT SUN OCT 20 2019

NOTE:  "FAIR" INDICATES FEW OR NO CLOUDS BELOW 12,000 FEET WITH NO 
SIGNIFICANT WEATHER AND/OR OBSTRUCTIONS TO VISIBILITY.

MAZALL-200600-
EASTERN MASSACHUSETTS
  
CITY           SKY/WX    TMP DP  RH WIND       PRES   REMARKS
BOSTON         FAIR      50  36  58 NW6       30.06S                  
BEVERLY        FAIR      37  34  89 N3        30.05S                  
LAWRENCE       FAIR      38  36  92 CALM      30.08R                  
BEDFORD        FAIR      38  33  82 CALM      30.05S                  
BLUE HILL      NOT AVBL                                               
NORWOOD        FAIR      36  31  82 CALM      30.06S HAZE             
MARSHFIELD     FAIR      41  41 100 W5        30.05S                  
PLYMOUTH       FAIR      36  35  96 CALM      30.05S                  
TAUNTON        FAIR      34  31  88 CALM      30.05S FOG              
NEW BEDFORD    FAIR      36  34  92 CALM      30.04F                  
$$

MAZALL-200600-
CAPE COD AND THE ISLANDS
  
CITY           SKY/WX    TMP DP  RH WIND       PRES   REMARKS
FALMOUTH       NOT AVBL                                               
HYANNIS        FAIR      37  34  89 CALM      30.04S                  
CHATHAM        NOT AVBL                                               
PROVINCETOWN   FAIR      38  36  92 CALM        N/A                   
NANTUCKET      FAIR      40  38  93 CALM      30.06S                  
MARTHAS VNYRD  FAIR      32  30  92 CALM      30.05F FOG              
$$
 
MAZALL-200600-
CENTRAL AND WESTERN MASSACHUSETTS
  
CITY           SKY/WX    TMP DP  RH WIND       PRES   REMARKS
WORCESTER      FAIR      48  31  51 N6        30.04S                  
FITCHBURG      FAIR      36  32  85 CALM      30.07S                  
ORANGE         FAIR      34  32  92 CALM      30.06F                  
SPRINGFIELD    FAIR      33  32  95 CALM      30.05R                  
WESTFIELD      FAIR      34  32  92 NE3       30.05S                  
NORTH ADAMS    FAIR      31  28  89 E3        30.06S                  
PITTSFIELD     FAIR      34  31  88 CALM      30.02F                  
$$
 
RIZALL-200600-
RHODE ISLAND
  
CITY           SKY/WX    TMP DP  RH WIND       PRES   REMARKS
PROVIDENCE     FAIR      42  40  92 CALM      30.06S                  
NEWPORT        FAIR      43  39  86 CALM      30.04F                  
BLOCK ISLAND   FAIR      49  45  86 W6        30.06S                  
SMITHFIELD     FAIR     N/A N/A N/A CALM      30.04F                  
WESTERLY       FAIR      41  40  96 CALM      30.06S                  
$$
 
CTZALL-200600-
CONNECTICUT
  
CITY           SKY/WX    TMP DP  RH WIND       PRES   REMARKS
BRADLEY INTL   FAIR      40  35  83 CALM      30.05S                  
HARTFORD       FAIR      41  38  89 CALM      30.06S                  
BRIDGEPORT     FAIR      46  43  89 N3        30.05S                  
DANBURY        FAIR      36  35  96 CALM      30.05F                  
GROTON         FAIR      40  39  97 N3        30.05S                  
NEW HAVEN      FAIR      43  40  89 CALM      30.06R                  
CHESTER        FAIR      46  43  87 CALM      30.05S                  
MERIDEN        FAIR      39  36  89 CALM      30.06S                  
WILLIMANTIC    FAIR      36  34  92 CALM      30.08R                  
OXFORD         FAIR      38  36  92 E3        30.05S                  
$$

MEZ002-015-021-024-NHZ003-005-008-011-012-014-VTZ005-008-200600-
NORTHERN NEW ENGLAND
  
CITY           SKY/WX    TMP DP  RH WIND       PRES   REMARKS
PORTLAND ME    FAIR      38  33  82 CALM      30.06R                  
BANGOR ME      FAIR      36  33  89 CALM      30.04S                  
CONCORD NH     FAIR      32  30  92 E3        30.07R                  
MANCHESTER NH  FAIR      39  36  89 CALM      30.06R                  
NASHUA NH      FAIR      35  35 100 NW3       30.07S                  
PORTSMOUTH NH  PTCLDY    39  38  94 CALM      30.04S                  
JAFFREY NH     FAIR      33  30  88 CALM      30.05S                  
KEENE NH       FAIR      31  31 100 CALM      30.07F FOG              
BURLINGTON VT  FAIR      36  33  89 S5        30.05R                  
MT. WASHINGTON PTCLDY    36  10  35 NW22        N/A  WCI  24          
$$

NYZ052-076-200600-
EASTERN NEW YORK
  
CITY           SKY/WX    TMP DP  RH WIND       PRES   REMARKS
ALBANY         FAIR      39  35  86 CALM      30.04F                  
NEW YORK CITY  MOCLDY    55  39  54 S5        30.04S                  
$$
 
ANZALL-200600-
MARINE OBSERVATIONS
  
STATION/POSITION TIME  TEMP    WIND        PRES    VSBY  WAVE
                       AIR SEA DIR/SP/G                  HT/PER
                 (UTC) (F)     (DEG/KT/KT) (MB)    (MI)  (FT/S)
BOSTON BUOY      0450   54 56  360/  8/ 10 1016.6F         1/ 9
BUZZARDS BAY     0400   56     280/  7/  8 1018.0R
NANTUCKET SOUND  0440      56                N/A           0
MASS BAY-STELLWA NOT AVBL
ISLE OF SHOALS   0400   52      10/  7/  8 1017.0R
S OF BLOCK IS    0500      60                N/A           2/ 4
$$

......................KEY.........................
  SKY/WX - SKY CONDITION/PRESENT WEATHER
  TMP    - TEMPERATURE IN FAHRENHEIT
  DWPT   - DEWPOINT IN FAHRENHEIT
  RH     - RELATIVE HUMIDITY IN PERCENT
  WIND   - DIRECTION AND SPEED IN MPH
  PRES   - MEAN SEA LEVEL PRESSURE IN INCHES OF HG
  WCI    - WIND CHILL INDEX
  VSB    - VISIBILITY IN MILES
  HX     - HEAT INDEX
  TC     - TEMPERATURE IN CELSIUS
  VRB    - VARIABLE WIND DIRECTION
  N/A    - NOT AVAILABLE
  
      

Other recent Regional Weather Roundups

Tue Oct 22, 1:10am

Tue Oct 22, 1:00am

Tue Oct 22, 12:10am

Tue Oct 22, 12:00am

Mon Oct 21, 11:10pm

Mon Oct 21, 11:00pm

Mon Oct 21, 10:10pm

Mon Oct 21, 10:01pm

Mon Oct 21, 9:10pm

Mon Oct 21, 9:00pm

Mon Oct 21, 8:10pm

Mon Oct 21, 8:00pm

Mon Oct 21, 7:10pm

Mon Oct 21, 7:01pm

Mon Oct 21, 6:10pm

Mon Oct 21, 6:01pm

Mon Oct 21, 5:10pm

Mon Oct 21, 5:01pm

Mon Oct 21, 4:10pm

Mon Oct 21, 4:00pm

Mon Oct 21, 3:10pm

Mon Oct 21, 3:01pm

Mon Oct 21, 2:10pm

Mon Oct 21, 2:00pm

Mon Oct 21, 1:10pm

Mon Oct 21, 1:01pm

Mon Oct 21, 12:10pm

Mon Oct 21, 12:00pm

Mon Oct 21, 11:10am

Mon Oct 21, 11:00am

Mon Oct 21, 10:10am

Mon Oct 21, 10:00am

Mon Oct 21, 9:10am

Mon Oct 21, 9:00am

Mon Oct 21, 7:10am

Mon Oct 21, 7:00am

Mon Oct 21, 6:10am

Mon Oct 21, 6:00am

Mon Oct 21, 5:10am

Mon Oct 21, 5:00am

Mon Oct 21, 4:10am

Mon Oct 21, 4:00am

Mon Oct 21, 3:10am

Mon Oct 21, 3:00am

Mon Oct 21, 2:10am

Mon Oct 21, 2:01am

Mon Oct 21, 1:10am

Mon Oct 21, 1:00am

Mon Oct 21, 12:10am

Mon Oct 21, 12:00am

Sun Oct 20, 11:10pm

Sun Oct 20, 11:00pm

Sun Oct 20, 10:10pm

Sun Oct 20, 10:00pm

Sun Oct 20, 9:10pm

Sun Oct 20, 9:01pm

Sun Oct 20, 8:10pm

Sun Oct 20, 8:00pm

Sun Oct 20, 7:10pm

Sun Oct 20, 7:01pm

Sun Oct 20, 6:10pm

Sun Oct 20, 6:00pm

Sun Oct 20, 5:10pm

Sun Oct 20, 5:00pm

Sun Oct 20, 4:10pm

Sun Oct 20, 4:00pm

Sun Oct 20, 3:10pm

Sun Oct 20, 3:00pm

Sun Oct 20, 2:10pm

Sun Oct 20, 2:01pm

Sun Oct 20, 1:10pm

Sun Oct 20, 1:01pm

Sun Oct 20, 12:10pm

Sun Oct 20, 12:00pm

Sun Oct 20, 11:10am

Sun Oct 20, 11:00am

Sun Oct 20, 10:10am

Sun Oct 20, 10:00am

Sun Oct 20, 9:10am

Sun Oct 20, 9:00am

Sun Oct 20, 8:10am

Sun Oct 20, 8:00am

Sun Oct 20, 7:10am

Sun Oct 20, 7:00am

Sun Oct 20, 6:10am

Sun Oct 20, 6:00am

Sun Oct 20, 5:10am

Sun Oct 20, 5:00am

Sun Oct 20, 4:10am

Sun Oct 20, 4:00am

Sun Oct 20, 3:10am

Sun Oct 20, 3:00am

Sun Oct 20, 2:10am

Sun Oct 20, 2:00am

Sun Oct 20, 1:00am

Sun Oct 20, 12:10am

Sun Oct 20, 12:00am

Sat Oct 19, 11:10pm

Sat Oct 19, 11:00pm

Sat Oct 19, 10:10pm

Sat Oct 19, 10:00pm

Sat Oct 19, 9:10pm

Sat Oct 19, 9:00pm

Sat Oct 19, 8:10pm

Sat Oct 19, 8:00pm

Sat Oct 19, 7:10pm

Sat Oct 19, 7:00pm

Sat Oct 19, 6:10pm

Sat Oct 19, 6:00pm

Sat Oct 19, 5:10pm

Sat Oct 19, 5:00pm

Sat Oct 19, 4:10pm

Sat Oct 19, 4:00pm

Sat Oct 19, 3:10pm

Sat Oct 19, 3:01pm

Sat Oct 19, 2:10pm

Sat Oct 19, 2:00pm

Sat Oct 19, 1:10pm

Sat Oct 19, 1:01pm

Sat Oct 19, 12:10pm

Sat Oct 19, 12:00pm

Sat Oct 19, 11:10am

Sat Oct 19, 11:01am

Sat Oct 19, 10:10am

Sat Oct 19, 10:00am

Sat Oct 19, 9:10am

Sat Oct 19, 9:00am

Sat Oct 19, 8:10am

Sat Oct 19, 8:00am

Sat Oct 19, 7:10am

Sat Oct 19, 7:00am

Sat Oct 19, 6:10am

Sat Oct 19, 6:00am

Sat Oct 19, 5:10am

Sat Oct 19, 5:00am

Sat Oct 19, 4:10am

Sat Oct 19, 4:00am

Sat Oct 19, 3:10am

Sat Oct 19, 3:00am

Sat Oct 19, 2:10am

Sat Oct 19, 2:00am

Meta data:

ID: 27c661d1-d03e-4250-beb6-8d0d199b5a65
Link: https://api.weather.gov/products/27c661d1-d03e-4250-beb6-8d0d199b5a65